{"data":{"norad_id":58874,"epoch":"2026-05-25T03:32:15.352224Z","epoch_age_seconds":52428,"freshness":"FRESH","line1":"1 58874U 24019X   26145.14739991  .00000860  00000+0  40768-4 0  9991","line2":"2 58874  43.0028 177.2912 0001582 275.8044  84.2627 15.27576582130771","mean_motion":15.27576582,"eccentricity":0.0001582,"inclination_deg":43.0028,"raan_deg":177.2912,"arg_perigee_deg":275.8044,"mean_anomaly_deg":84.2627,"bstar":4.0768e-5,"rev_number":13077,"period_min":94.266959638427,"perigee_km":481.97388952083,"apogee_km":484.14477203988,"semimajor_km":6861.1963307804,"source":"CELESTRAK","updated_at":"2026-05-25T13:38:18.780898Z"}}